User: anonymous   Login
Location: Caltech
(34.1382°N, 118.1253°W)
Time: 05:17:12
(UTC-07:00)
Language:

Cosmos 2219 Rocket - Orbit

View from above orbital plane
View from above orbital plane
View from above satellite
View from above satellite

Ground track
Ground track

The orbit data is extracted from the following two-line orbital elements,

1 22220U 92076B   15246.78209647 +.00000247 +00000-0 +14833-3 0  9998
2 22220 071.0026 352.4789 0013315 196.7019 276.2438 14.16375744178392
Epoch (UTC): 03 September 2015 18:46:13
Eccentricity: 0.0013315
inclination: 71.0026°
perigee height: 828 km
apogee height: 847 km
right ascension of ascending node: 352.4789°
argument of perigee: 196.7019°
revolutions per day: 14.16375744
mean anomaly at epoch: 276.2438°
orbit number at epoch: 17839

The dashed part of the orbit path shows where the satellite is in the earth's shadow,  

DLR